Hourly Data Report for October 19, 2013

All times are specified in Local Standard Time (LST). Add 1 hour to adjust for Daylight Saving Time where and when it is observed.

MONCTON INTL A
NEW BRUNSWICK

46°06'44.000" N
64°40'43.000" W
70.70 m
8103201
71705
YQM

Download Data

Hourly Data (October 2013)
Hourly Data Report for October 19, 2013
Temp Definition
°C
Dew Point Temp Definition
°C
Rel Hum Definition
%
Wind Dir Definition
10's deg

Wind Spd Definition
km/h
Visibility Definition
km
Stn Press Definition
kPa
Hmdx Definition


Wind Chill Definition


Weather Definition


TIME
00:00 Legend Double Dagger 9.7 9.3 97 24 17 24.1 99.56     LegendNANA
01:00 Legend Double Dagger 9.4 8.8 96 24 21 24.1 99.56     LegendNANA
02:00 Legend Double Dagger 9.2 8.3 94 24 20 24.1 99.61     Mostly Cloudy
03:00 Legend Double Dagger 8.9 8.0 94 23 21 24.1 99.60     LegendNANA
04:00 Legend Double Dagger 8.9 7.5 91 25 20 24.1 99.65     LegendNANA
05:00 Legend Double Dagger 8.8 7.1 89 24 28 24.1 99.70     Mainly Clear
06:00 Legend Double Dagger 8.3 6.6 89 25 26 24.1 99.74     LegendNANA
07:00 Legend Double Dagger 8.1 6.2 88 24 27 24.1 99.78     LegendNANA
08:00 Legend Double Dagger 8.8 6.1 83 25 30 24.1 99.86     Clear
09:00 Legend Double Dagger 10.3 5.3 71 26 41 24.1 99.90     LegendNANA
10:00 Legend Double Dagger 11.0 5.2 67 26 37 24.1 99.97     LegendNANA
11:00 Legend Double Dagger 12.1 5.5 64 26 35 24.1 99.94     Mainly Clear
12:00 Legend Double Dagger 12.9 4.4 56 28 28 24.1 99.97     LegendNANA
13:00 Legend Double Dagger 13.6 5.1 56 24 31 24.1 99.98     LegendNANA
14:00 Legend Double Dagger 13.8 5.2 56 24 22 24.1 100.00     Mainly Clear
15:00 Legend Double Dagger 14.5 5.1 53 25 30 24.1 100.06     LegendNANA
16:00 Legend Double Dagger 14.2 5.1 54 25 21 24.1 100.08     LegendNANA
17:00 Legend Double Dagger 12.9 5.1 59 26 13 24.1 100.16     Mostly Cloudy
18:00 Legend Double Dagger 11.1 4.8 65 22 10 24.1 100.23     LegendNANA
19:00 Legend Double Dagger 10.0 5.0 71 19 9 24.1 100.20     LegendNANA
20:00 Legend Double Dagger 9.8 5.0 72 19 8 24.1 100.15     Mostly Cloudy
21:00 Legend Double Dagger 8.7 4.9 77 20 12 24.1 100.22     LegendNANA
22:00 Legend Double Dagger 8.5 4.7 77 18 10 24.1 100.19     LegendNANA
23:00 Legend Double Dagger 8.8 5.0 77 20 12 24.1 100.13     Mostly Cloudy

Notes on Data Quality.

Legend

  • E = Estimated
  • M = Missing
  • NA = Not Available
  • ‡ = Partner data that is not subject to review by the National Climate Archives
Date modified: